• Processing (Info)

  • MPEC 2005-W88 : 2005 WE55

    The following Minor Planet Electronic Circular may be linked-to from your own Web pages, but must not otherwise be redistributed electronically.

    A form allowing access to any MPEC is at the bottom of this page.


    Read MPEC 2005-W87 Read MPEC 2005-W89


    M.P.E.C. 2005-W88                                Issued 2005 Nov. 29, 22:31 UT
    
         The Minor Planet Electronic Circulars contain information on unusual
             minor planets and routine data on comets.  They are published
       on behalf of Commission 20 of the International Astronomical Union by the
              Minor Planet Center, Smithsonian Astrophysical Observatory,
                              Cambridge, MA 02138, U.S.A.
    
                      Supported in part by the Brinson Foundation
                      Supported in part by the TABASGO Foundation
                 Prepared using the Tamkin Foundation Computer Network
    
                                  MPC@CFA.HARVARD.EDU
              URL http://cfa-www.harvard.edu/iau/mpc.html  ISSN 1523-6714
    
                                       2005 WE55
    
    Observations:
         K05W55E* C2005 11 26.32591 03 59 53.41 +20 46 53.0          20.6 V EW088G96
         K05W55E  C2005 11 26.33286 03 59 52.11 +20 47 08.5          20.6 V EW088G96
         K05W55E  C2005 11 26.33969 03 59 50.89 +20 47 23.4          20.9 V EW088G96
         K05W55E  C2005 11 26.34637 03 59 49.70 +20 47 38.0          20.4 V EW088G96
         K05W55E  C2005 11 26.38998 03 59 41.78 +20 49 13.6          21.4 V EW088G96
         K05W55E  C2005 11 26.39706 03 59 40.49 +20 49 29.2          20.9 V EW088G96
         K05W55E  C2005 11 26.40469 03 59 39.12 +20 49 45.8          20.6 V EW088G96
         K05W55E  C2005 11 29.20157 03 51 13.03 +22 35 06.1          21.4 V EW088291
         K05W55E  C2005 11 29.20708 03 51 11.96 +22 35 18.8          21.4 V EW088291
         K05W55E  C2005 11 29.21195 03 51 11.00 +22 35 29.9          21.4 V EW088291
         K05W55E  C2005 11 29.89913 03 49 00.44 +23 01 55.2                 EW088J95
         K05W55E  C2005 11 29.91406 03 48 57.45 +23 02 30.1          20.7 R EW088J95
    
    Observer details:
    291 LPL/Spacewatch II.  Observer J. V. Scotti.  1.8-m f/2.7 reflector + CCD.
    G96 Mt. Lemmon Survey.  Observers E. J. Christensen, A. D. Grauer.  Measurers
        E. C. Beshore, E. J. Christensen, G. J. Garradd, A. D. Grauer, R. E. Hill,
        R. A. Kowalski, S. M. Larson, R. H. McNaught.  1.5-m reflector + CCD.
    J95 Great Shefford.  Observer P. Birtwhistle.  0.40-m f/6.0 Schmidt-Cassegrain
        + CCD.
    
    Orbital elements:
    2005 WE55
    Epoch 2006 Mar. 6.0 TT = JDT 2453800.5                  MPC
    M 359.07077              (2000.0)            P               Q
    n   0.46391251     Peri.   88.07119     -0.81395964     -0.47647725
    a   1.6526415      Node    63.33256     +0.26178014     -0.81153522
    e   0.3677228      Incl.   21.83175     +0.51859508     -0.33820114
    P   2.12           H   21.8           G   0.15           U   8
    Residuals in seconds of arc
    051126 G96  0.2+  0.2-    051126 G96  0.1+  0.0     051129 291  0.0   0.0
    051126 G96  0.4-  0.0     051126 G96  0.1-  0.2+    051129 291  0.0   0.2-
    051126 G96  0.1-  0.0     051126 G96  0.0   0.1+    051129 J95  0.3+  0.0
    051126 G96  0.3+  0.1-    051129 291  0.1-  0.1+    051129 J95  0.3-  0.0
    
    Ephemeris:
    2005 WE55                a,e,i = 1.65, 0.37, 22                  q = 1.0449
    Date    TT    R. A. (2000) Decl.     Delta      r     Elong.  Phase     V
    2005 11 26    04 00.84   +20 35.0    0.425    1.412   178.5     1.0    20.8
    2005 12 06    03 28.33   +27 04.7    0.389    1.359   160.9    13.7    21.2
    2005 12 16    02 51.78   +33 39.3    0.379    1.307   143.1    26.9    21.5
    2005 12 26    02 17.52   +39 27.2    0.389    1.257   127.2    38.6    21.8
    2006 01 05    01 50.60   +44 20.6    0.410    1.210   114.0    48.0    22.1
    2006 01 15    01 32.69   +48 42.4    0.435    1.166   103.6    55.1    22.3
    
    Timothy B. Spahr             (C) Copyright 2005 MPC           M.P.E.C. 2005-W88
    

    Read MPEC 2005-W87 Read MPEC 2005-W89


    MPEC number:

    Enter an MPEC number in one of the following forms:

    • 1997-B01 (the full form)
    • J97B01 (the packed version of the full form)
    • B01 (the abbreviated form)